Location: Bennemühlen
(52.5740°N, 9.7135°E)
Time: 07:36:56
(UTC+00:00)

SL-14 R/B - Pass Details

Date: 19 May 2025
Orbit: 500 x 530 km, 82.4° (Epoch: 22 June)

Event Time Altitude Azimuth Distance (km) Brightness Sun altitude
Exits shadow 23:54:00 35° 159° (SSE) 860 3.8 -17.0°
Maximum altitude 23:55:23 58° 97° (E) 614 3.5 -17.0°
Drops below altitude 10° 23:59:13 10° 18° (NNE) 1,775 7.2 -16.9°
Sets 00:01:24 0° 14° (NNE) 2,673 8.6 -16.8°
